Location: Forst
(46.9333°N, 15.4333°E)
Time: 18:44:32
(UTC+00:00)

SAR-Lupe-4 - Pass Details

Date: 01 December 2020
Orbit: 481 x 484 km, 98.2° (Epoch: 09 January)

Event Time Altitude Azimuth Distance (km) Brightness Sun altitude
Exits shadow 17:29:13 71° 290° (WNW) 517 3.7 -22.8°
Maximum altitude 17:29:14 71° 287° (WNW) 516 3.7 -22.8°
Drops below altitude 10° 17:32:48 10° 202° (SSW) 1,663 6.6 -23.4°
Sets 17:34:51 0° 200° (SSW) 2,539 7.6 -23.8°
